Cleveland, OH

2:15 PM EST on December 10, 2016 (GMT -0500)
Burke Lakefront

Weather History for KBKL - June, 2013

Change the Weather History Date:

Wednesday, June 12, 2013

  Actual Average Record
Temperature  
Mean Temperature 68 °F -  
Max Temperature 73 °F 74 °F 93 °F (2008)
Min Temperature 64 °F 59 °F 54 °F (2006)
Cooling Degree Days 3    
Growing Degree Days 18 (Base 50)    
Moisture  
Dew Point 64 °F    
Average Humidity 87    
Maximum Humidity 94    
Minimum Humidity 73    
Precipitation  
Precipitation 0.00 in - - ()
Sea Level Pressure  
Sea Level Pressure 29.83 in    
Wind  
Wind Speed 6 mph (WNW)    
Max Wind Speed 13 mph    
Max Gust Speed -    
Visibility 5 miles    
Events Rain , Thunderstorm    
Averages and records for this station are not official NWS values.
T = Trace of Precipitation, MM = Missing Value Source: NWS Daily Summary

Daily Weather History Graph

Daily Weather History Graph

Search for Another Location

Airport or City:

Trip Planner

Search our weather history database for the weather conditions in past years. The results will help you decide how hot, cold, wet, or windy it might be!

Date:

Astronomy

Jun. 12, 2013 Rise Set
Actual Time 5:52 AM EDT 9:01 PM EDT
Civil Twilight 5:18 AM EDT 9:35 PM EDT
Nautical Twilight 4:34 AM EDT 10:18 PM EDT
Astronomical Twilight 3:43 AM EDT 11:10 PM EDT
Moon 9:32 AM EDT (6/12) 11:33 PM EDT (6/12)
Length of Visible Light 16h 16m
Length of Day
15h 08m
Waxing Crescent, 14% of the Moon is Illuminated
Jun 12
Waxing Crescent
Jun 16
First Quarter
Jun 23
Full
Jun 30
Last Quarter
Jul 8
New

Hourly Weather History & Observations

Time (EDT) Temp. Dew Point Humidity Pressure Visibility Wind Dir Wind Speed Gust Speed Precip Events Conditions
12:53 AM 72.0 °F 63.0 °F 73% 29.84 in 9.0 mi South 5.8 mph - N/A   Mostly Cloudy
1:53 AM 71.1 °F 62.1 °F 73% 29.84 in 10.0 mi SSE 4.6 mph - N/A   Scattered Clouds
2:53 AM 70.0 °F 63.0 °F 78% 29.83 in 9.0 mi South 4.6 mph - N/A   Partly Cloudy
3:53 AM 69.1 °F 64.0 °F 84% 29.83 in 8.0 mi WSW 9.2 mph - N/A   Partly Cloudy
4:53 AM 68.0 °F 64.0 °F 87% 29.83 in 7.0 mi West 12.7 mph - N/A   Scattered Clouds
5:53 AM 64.9 °F 63.0 °F 93% 29.86 in 3.0 mi West 5.8 mph - N/A   Clear
6:12 AM 64.4 °F 62.6 °F 94% 29.88 in 2.5 mi West 5.8 mph - N/A   Clear
6:51 AM 64.4 °F 62.6 °F 94% 29.89 in 3.0 mi West 4.6 mph - N/A   Clear
6:53 AM 64.9 °F 63.0 °F 93% 29.89 in 3.0 mi WSW 3.5 mph - N/A   Clear
7:53 AM 66.0 °F 63.0 °F 90% 29.89 in 3.0 mi West 4.6 mph - N/A   Clear
8:53 AM 68.0 °F 64.0 °F 87% 29.88 in 4.0 mi West 3.5 mph - N/A   Clear
9:53 AM 68.0 °F 64.0 °F 87% 29.88 in 4.0 mi WNW 4.6 mph - N/A   Clear
10:53 AM 68.0 °F 64.0 °F 87% 29.91 in 3.0 mi NW 5.8 mph - N/A   Clear
11:53 AM 66.9 °F 64.0 °F 90% 29.91 in 3.0 mi NW 5.8 mph - N/A   Clear
12:53 PM 66.9 °F 63.0 °F 87% 29.92 in 4.0 mi North 3.5 mph - N/A   Clear
1:53 PM 66.0 °F 63.0 °F 90% 29.87 in 4.0 mi ENE 9.2 mph - N/A   Mostly Cloudy
2:53 PM 72.0 °F 64.9 °F 78% 29.83 in 7.0 mi NNW 5.8 mph - N/A   Partly Cloudy
3:53 PM 68.0 °F 64.0 °F 87% 29.83 in 4.0 mi SW 3.5 mph - 0.00 in   Mostly Cloudy
4:53 PM 66.9 °F 64.0 °F 90% 29.84 in 3.0 mi ENE 6.9 mph - 0.00 in Rain Light Rain
5:53 PM 72.0 °F 64.9 °F 78% 29.81 in 5.0 mi Calm Calm - 0.00 in   Haze
6:53 PM 66.9 °F 64.0 °F 90% 29.80 in 4.0 mi ENE 10.4 mph - N/A   Mostly Cloudy
7:53 PM 66.9 °F 64.0 °F 90% 29.80 in 5.0 mi NE 10.4 mph - 0.00 in   Mostly Cloudy
8:53 PM 69.1 °F 66.0 °F 90% 29.75 in 4.0 mi ENE 3.5 mph - N/A   Overcast
9:53 PM 68.0 °F 66.0 °F 93% 29.74 in 4.0 mi ENE 3.5 mph - N/A   Mostly Cloudy
10:26 PM 71.6 °F 66.2 °F 83% 29.72 in 7.0 mi South 6.9 mph - N/A Thunderstorm Thunderstorm
10:53 PM 69.8 °F 66.2 °F 88% 29.70 in 6.0 mi NE 5.8 mph - N/A Thunderstorm Thunderstorm
11:53 PM 69.1 °F 66.0 °F 90% 29.69 in 5.0 mi NE 4.6 mph - 0.00 in Thunderstorm Thunderstorm